Saint Simons Island, GA

1:41 PM EST on February 10, 2016 (GMT -0500)
McKinnon

Weather History for KSSI - November, 2012

Change the Weather History Date:

Thursday, November 8, 2012

  Actual Average Record
Temperature  
Mean Temperature 55 °F 64 °F  
Max Temperature 65 °F 72 °F 81 °F (1986)
Min Temperature 45 °F 55 °F 36 °F (1951)
Degree Days  
Heating Degree Days 10 4  
Month to date heating degree days 38 24  
Since 1 July heating degree days 67 54  
Cooling Degree Days 0 2  
Month to date cooling degree days 11 21  
Year to date cooling degree days 2898 2582  
Growing Degree Days 4 (Base 50)    
Moisture  
Dew Point 43 °F    
Average Humidity 65    
Maximum Humidity 93    
Minimum Humidity 37    
Precipitation  
Precipitation 0.00 in 0.08 in 0.87 in (1996)
Month to date precipitation 0.18 0.61  
Year to date precipitation 39.31 40.94  
Snow  
Snow 0.00 in - 0.00 in ()
Month to date snowfall 0.0  
Since 1 July snowfall 0.0  
Since 1 September snowfall 0.0  
Snow Depth 0.00 in    
Sea Level Pressure  
Sea Level Pressure 30.10 in    
Wind  
Wind Speed 4 mph (NW)    
Max Wind Speed 12 mph    
Max Gust Speed 17 mph    
Visibility 8 miles    
Events      
T = Trace of Precipitation, MM = Missing Value Source: NWS Daily Summary

Daily Weather History Graph

Daily Weather History Graph

Search for Another Location

Airport or City:

Trip Planner

Search our weather history database for the weather conditions in past years. The results will help you decide how hot, cold, wet, or windy it might be!

Date:

Astronomy

Nov. 08, 2012 Rise Set
Actual Time 6:47 AM EST 5:31 PM EST
Civil Twilight 6:21 AM EST 5:56 PM EST
Nautical Twilight 5:52 AM EST 6:25 PM EST
Astronomical Twilight 5:24 AM EST 6:54 PM EST
Moon 1:03 AM EST (11/8) 1:51 PM EST (11/8)
Length of Visible Light 11h 34m
Length of Day
10h 44m
Waning Crescent, 33% of the Moon is Illuminated
Nov 8
Waning Crescent
Nov 13
New
Nov 20
First Quarter
Nov 28
Full
Dec 6
Last Quarter

Hourly Weather History & Observations

Time (EST) Temp. Windchill Dew Point Humidity Pressure Visibility Wind Dir Wind Speed Gust Speed Precip Events Conditions
12:53 AM 48.9 °F - 46.0 °F 90% 30.00 in 10.0 mi NW 4.6 mph - N/A   Clear
1:37 AM 48.2 °F - 46.4 °F 93% 30.01 in 9.0 mi WNW 3.5 mph - N/A   Partly Cloudy
1:53 AM 48.0 °F - 46.0 °F 93% 30.01 in 8.0 mi Variable 4.6 mph - N/A   Scattered Clouds
2:03 AM 48.2 °F - 46.4 °F 93% 30.01 in 8.0 mi WNW 5.8 mph - N/A   Mostly Cloudy
2:53 AM 46.9 °F - 45.0 °F 93% 30.02 in 8.0 mi WNW 6.9 mph - N/A   Overcast
3:53 AM 46.9 °F - 44.1 °F 90% 30.03 in 6.0 mi NW 5.8 mph - N/A   Mostly Cloudy
4:53 AM 46.0 °F 44.8 °F 44.1 °F 93% 30.05 in 5.0 mi NW 3.5 mph - N/A   Mostly Cloudy
5:08 AM 44.6 °F 42.2 °F 42.8 °F 93% 30.05 in 6.0 mi NW 4.6 mph - N/A   Scattered Clouds
5:30 AM 46.4 °F - 44.6 °F 93% 30.05 in 5.0 mi Calm Calm - N/A   Mostly Cloudy
5:53 AM 45.0 °F 42.6 °F 43.0 °F 93% 30.07 in 5.0 mi NW 4.6 mph - N/A   Overcast
6:40 AM 44.6 °F 41.4 °F 42.8 °F 93% 30.08 in 5.0 mi NNW 5.8 mph - N/A   Scattered Clouds
6:53 AM 45.0 °F 41.8 °F 43.0 °F 93% 30.09 in 4.0 mi NNW 5.8 mph - N/A   Mostly Cloudy
7:13 AM 44.6 °F 41.4 °F 42.8 °F 93% 30.09 in 3.0 mi NNW 5.8 mph - N/A   Scattered Clouds
7:53 AM 46.9 °F - 44.1 °F 90% 30.11 in 4.0 mi NW 5.8 mph - N/A   Clear
8:53 AM 51.1 °F - 46.0 °F 83% 30.13 in 7.0 mi NW 10.4 mph - N/A   Clear
9:53 AM 54.0 °F - 45.0 °F 72% 30.15 in 10.0 mi Variable 6.9 mph - N/A   Clear
10:53 AM 57.0 °F - 44.1 °F 62% 30.15 in 10.0 mi Variable 5.8 mph - N/A   Clear
11:53 AM 61.0 °F - 42.1 °F 50% 30.15 in 10.0 mi North 6.9 mph - N/A   Clear
12:53 PM 62.1 °F - 39.9 °F 44% 30.13 in 10.0 mi Variable 3.5 mph - N/A   Clear
1:53 PM 63.0 °F - 41.0 °F 45% 30.11 in 10.0 mi Variable 6.9 mph - N/A   Clear
2:53 PM 64.9 °F - 39.9 °F 40% 30.10 in 10.0 mi WNW 5.8 mph - N/A   Clear
3:53 PM 64.0 °F - 37.9 °F 38% 30.10 in 10.0 mi Variable 3.5 mph - N/A   Clear
4:53 PM 63.0 °F - 39.0 °F 41% 30.11 in 10.0 mi NW 3.5 mph - N/A   Clear
5:53 PM 55.9 °F - 43.0 °F 62% 30.13 in 10.0 mi Calm Calm - N/A   Clear
6:53 PM 53.1 °F - 44.1 °F 71% 30.15 in 10.0 mi Calm Calm - N/A   Clear
7:53 PM 52.0 °F - 44.1 °F 74% 30.16 in 10.0 mi Calm Calm - N/A   Clear
8:53 PM 50.0 °F - 43.0 °F 77% 30.17 in 10.0 mi Calm Calm - N/A   Clear
9:53 PM 48.9 °F - 43.0 °F 80% 30.18 in 10.0 mi Calm Calm - N/A   Clear
10:53 PM 46.9 °F - 43.0 °F 86% 30.18 in 10.0 mi Calm Calm - N/A   Clear
11:53 PM 46.0 °F - 43.0 °F 89% 30.18 in 10.0 mi Calm Calm - N/A   Clear